Regional Weather Roundup
Issued by NWS

Home | Current Version | Previous Version | Text Only | Print | Product List | Glossary Off
Versions: 1 2 3 4 5 6 7 8 9 10 11 12 13 14 15 16 17 18 19 20 21 22 23 24 25 26 27 28 29 30 31 32 33 34 35 36 37 38 39 40 41 42 43 44 45 46 47 48 49 50

000
ASUS43 KLOT 012301
RWRIL

ILLINOIS REGIONAL WEATHER ROUNDUP
NATIONAL WEATHER SERVICE CHICAGO/ROMEOVILLE IL
600 PM CDT TUE SEP 01 2015

NOTE: "FAIR" INDICATES FEW OR NO CLOUDS BELOW 12,000 FEET WITH NO
SIGNIFICANT WEATHER AND/OR OBSTRUCTIONS TO VISIBILITY.

* THESE STATIONS ARE NOT UNDER NWS QUALITY CONTROL. THEY ALSO MAY NOT
  REPORT WEATHER SUCH AS PRECIPITATION OR FOG.

ILZ001-002-007-009-015-016-024-020000-
NORTHWEST ILLINOIS

CITY           SKY/WX    TMP DP  RH WIND       PRES   REMARKS
MOLINE         SUNNY     88  71  57 S6        29.97S HX  94
STERLING*      SUNNY     90  72  55 W7        29.97R HX  96
$$

ILZ003-004-008-010-011-017-018-020000-
NORTH CENTRAL ILLINOIS

CITY           SKY/WX    TMP DP  RH WIND       PRES   REMARKS
ROCKFORD       SUNNY     87  72  60 SW8       29.99S HX  93
FREEPORT*      SUNNY     84  71  65 SW12      30.00S HX  89
$$

ILZ005-006-012>014-019>023-020000-
NORTHEAST ILLINOIS

CITY           SKY/WX    TMP DP  RH WIND       PRES   REMARKS
CHICAGO-OHARE  MOSUNNY   86  72  62 SW12      29.99S HX  92
CHICAGO-MIDWAY MOSUNNY   88  71  57 SW16      30.00S HX  94
AURORA         SUNNY     86  74  67 S8        30.01S HX  94
LANSING*       SUNNY     84  71  65 S7        30.02S HX  89
WAUKEGAN       SUNNY     85  69  58 SW12      29.98R HX  89
DUPAGE AIRPORT SUNNY     86  72  62 SW13      30.00S HX  92
WHEELING       MOSUNNY   87  70  56 SW9       30.00S HX  92
NORTHERLY ISL    N/A     87  67  51 S8          N/A  HX  90
$$

LMZ740>746-020000-
SOUTHERN LAKE MICHIGAN

STATION/POSITION SKY/WX   TEMP    WIND        PRES    VSBY  WAVE
                          AIR SEA DIR/SP/G                  HT/PER
                          (F)     (DEG/KT/KT) (MB)    (MI)  (FT/S)
SOUTHERN BUOY              74 70  170/ 12/ 16 1014.9F         1/ 3
WILMETTE HARBOR            76 61   10/  8/ 10   N/A           1/ 3
BURNHAM HARBOR             88     200/  7/ 16   N/A
CALUMET HARBOR             86     200/  7/ 12   N/A
BURNS HARBOR               84     190/  8/ 11 1016.6F
MICHIGAN CITY 6N           78 73  220/  4/  6   N/A           1
ST. JOSEPH                 75 73  220/  4/  4   N/A           1/ 3
$$

ILZ025>027-034>036-040-047-049-050-058-095>099-020000-
WEST-CENTRAL ILLINOIS

CITY           SKY/WX    TMP DP  RH WIND       PRES   REMARKS
QUINCY         SUNNY     89  66  46 S9        30.01S HX  91
$$

ILZ028>032-037-038-041>044-048-051>054-059>061-020000-
CENTRAL ILLINOIS

CITY           SKY/WX    TMP DP  RH WIND       PRES   REMARKS
DECATUR        MOSUNNY   88  70  55 S9        30.04R HX  93
PEORIA         SUNNY     92  66  42 W7        30.01S HX  94
SPRINGFIELD    SUNNY     90  69  50 SW8       30.02S HX  94
TAYLORVILLE    NOT AVBL
$$

ILZ033-039-045-046-055>057-062-063-020000-
EAST-CENTRAL ILLINOIS

CITY           SKY/WX    TMP DP  RH WIND       PRES   REMARKS
CHAMPAIGN      SUNNY     83  71  67 S8        30.05S HX  87
MATTOON        SUNNY     85  68  56 S9        30.05S HX  88
$$

ILZ079-100>102-020000-
SOUTHWEST ILLINOIS

CITY           SKY/WX    TMP DP  RH WIND       PRES   REMARKS
BELLEVILLE     SUNNY     88  73  61 VRB3      30.03F HX  95
CAHOKIA*       SUNNY     89  70  53 S6        30.03F HX  94
$$

ILZ064>066-069>071-074>076-080>082-084>086-088>090-092>094-020000-
SOUTH-CENTRAL ILLINOIS

CITY           SKY/WX    TMP DP  RH WIND       PRES   REMARKS
CARBONDALE     MOSUNNY   85  69  58 S9        30.06S HX  89
MARION         MOSUNNY   88  70  55 SW6       30.07F HX  92
MT. VERNON     SUNNY     88  70  55 S5        30.07S HX  92
$$

ILZ067-068-072-073-078-083-087-091-020000-
SOUTHEAST ILLINOIS

CITY           SKY/WX    TMP DP  RH WIND       PRES   REMARKS
LAWRENCEVILLE  MOSUNNY   83  69  62 S3        30.07S HX  86
FLORA*         MOSUNNY   87  67  51 SW7       30.06F HX  90
ROBINSON*      MOSUNNY   80  73  78 SE3       30.08S HX  84
$$

ABBREVIATIONS USED IN REMARKS
   TC - TEMPERATURE IN CELSIUS
  WCI - WIND CHILL INDEX
   HX - HEAT INDEX
  VSB - VISIBILITY
$$



USA.gov is the U.S. government's official web portal to all federal, state and local government web resources and services.